Regional Weather Roundup
Issued by NWS

Home | Current Version | Previous Version | Text Only | Print | Product List | Glossary Off
Versions: 1 2 3 4 5 6 7 8 9 10 11 12 13 14 15 16 17 18 19 20 21 22 23 24 25 26 27 28 29 30 31 32 33 34 35 36 37 38 39 40 41 42 43 44 45 46 47 48 49 50

000
ASUS44 KMEG 030000
RWRTN
TENNESSEE HOURLY STATE WEATHER ROUNDUP
NATIONAL WEATHER SERVICE MEMPHIS TN
700 PM CDT TUE SEP 02 2014

TNZ002-004-019-021-049-052-054-088>092-030100-
WEST TENNESSEE

CITY           SKY/WX    TMP DP  RH WIND       PRES   REMARKS
MEMPHIS INTL   CLOUDY    77  71  82 W9        29.97R
NWS MEMPHIS      N/A     78 N/A N/A MISG        N/A
JACKSON        CLOUDY    80  72  76 SW6       29.92S
DYERSBURG      CLOUDY    79  64  61 S9        29.97R
UNION CITY     CLEAR     79  72  78 N6        29.92S
PARIS          CLEAR     75  73  94 CALM      29.95R
SAVANNAH       CLEAR     79  77  94 CALM      29.93R
$$

TNZ008-025-027-028-033-062-065-066-030100-
NORTH MIDDLE TENNESSEE

CITY           SKY/WX    TMP DP  RH WIND       PRES   REMARKS
NASHVILLE      LGT RAIN  72  69  90 CALM      29.99R
CLARKSVILLE    CLOUDY    74  71  91 CALM      29.95S
COOKEVILLE     CLOUDY    72  72 100 CALM      30.06R VSB 1/2
CROSSVILLE     CLOUDY    70  65  84 N9        30.07R
$$

TNZ061-075-076-078-094-096-097-030100-
SOUTH MIDDLE TENNESSEE

CITY           SKY/WX    TMP DP  RH WIND       PRES   REMARKS
TULLAHOMA      PTCLDY    81  70  69 SW9       30.00R
WINCHESTER     PTCLDY    84  72  65 CALM      29.98R
SHELBYVILLE    MOCLDY    84  75  74 W6        29.98R HX  92
$$

TNZ017-018-042-046-047-030100-
NORTHEAST TENNESSEE

CITY           SKY/WX    TMP DP  RH WIND       PRES   REMARKS
TRI CITIES     PTCLDY    83  64  52 W6        30.01R
ELIZABETHTON   CLEAR     73  66  78 NW3       30.01R
$$

TNZ012-013-036-069-073-074-030100-
CENTRAL EAST TENNESSEE

CITY           SKY/WX    TMP DP  RH WIND       PRES   REMARKS
KNOXVILLE      NOT AVBL
OAK RIDGE      MOCLDY    81  67  62 NW12G24   30.01R
GATLINBURG     CLEAR     84  68  58 W5        29.98R
$$

TNZ083-085-099-030100-
SOUTHEAST TENNESSEE

CITY           SKY/WX    TMP DP  RH WIND       PRES   REMARKS
CHATTANOOGA    PTCLDY    87  66  49 W7        29.97R
$$

SKY/WX REPORTED AS FAIR MEANS FEW OR NO CLOUDS BELOW
12 THOUSAND FEET.



USA.gov is the U.S. government's official web portal to all federal, state and local government web resources and services.